Terminal Aerodrome Forecast
Issued by NWS Billings, MT

Home | Current Version | Previous Version | Graphics & Text | Print | Product List | Glossary On
Versions: 1 2 3 4 5 6 7 8 9 10 11 12 13 14 15 16 17 18 19 20 21 22 23 24 25 26 27 28 29 30 31 32 33
000
FTUS45 KBYZ 291120
TAFMLS
TAF
KMLS 291120Z 2912/3012 VRB06KT P6SM VCSH FEW040 BKN100
     FM291400 32014KT P6SM BKN035
     FM292100 07006KT P6SM BKN040=

USA.gov is the U.S. government's official web portal to all federal, state and local government web resources and services.